Weather in Solovtsovo

Russia / Penza Oblast     53°47′31″N   45°05′24″E
temp.,
°C
wind,
m/s
gust,
m/s
humid.,
%
clouds,
%
prec.,
mm/h
press.,
hPa
HPBL,
m
3 march, wed
wed300:00−5wnw479669 0.0 1005131
03:00−6wnw499672 0.1 1006166
06:00−3nw5995100 0.1 1006549
09:00−4nnw71086100 0.3 1008793
12:00−5nw7990100 0.1 1009707
15:00−5nw71088100 0.1 1010738
18:00−5wnw61190100 0.1 1011719
21:00−8w499283 0.1 1012154
4 march, thu
thu400:00−8wsw5109665 0.0 1010200
03:00−4wsw7139381 0.1 1009525
06:00−3wsw71393100 0.1 1006788
09:00−2wsw91591100 0.3 1003765
12:000wsw101694100 0.5 1001960
15:000w81491100 0.6 10011048
18:00−1wsw61293100 0.1 1002739
21:00−1wsw61196100 0.5 1002493
5 march, fri
fri500:00−1sw4898100 1.4 1001398
03:00−1sw51197100 2.6 1000613
06:00−1wnw3798100 2.0 999329
09:00−4n5895100 3.0 1001452
12:00−4nnw4691100 0.1 1004534
15:00−4nnw358999 0.2 1008585
18:00−10nnw119355 0.0 101021
21:00−10sw229569 0.0 101221
6 march, sat
sat600:00−10sw339693 0.0 101331
03:00−10sw359696 0.1 1013115
06:00−12w3596100 0.0 101383
09:00−11wnw4894100 0.0 1013252
12:00−9nw479181 0.0 1013332
15:00−7wnw469068 0.0 1013615
18:00−11w349566 0.0 101462
21:00−12nw489582 0.1 1015209
7 march, sun
sun700:00−17wnw339546 0.0 101622
03:00−18w349623 0.0 101638
06:00−19wsw34950 0.0 101550
09:00−14sw511900 0.0 1013301
12:00−9ssw8148396 0.0 1010670
15:00−7sw10179198 0.1 10051163
18:00−6sw101893100 0.8 10011192
21:00−4sw101793100 2.1 9971052